Weather reports worldwide

Advertisment
Milano/Linate, Italy (16080): temperature & dewpoint: 14.10.2018 16:00:00 - 20.10.2018 16:00:00 (CEST)Milano/Linate, Italy (16080): wind speed: 14.10.2018 16:00:00 - 20.10.2018 16:00:00 (CEST)Milano/Linate, Italy (16080): wind direction: 14.10.2018 16:00:00 - 20.10.2018 16:00:00 (CEST)Milano/Linate, Italy (16080): reduced air pressure: 14.10.2018 16:00:00 - 20.10.2018 16:00:00 (CEST)Milano/Linate, Italy (16080): visibility: 14.10.2018 16:00:00 - 20.10.2018 16:00:00 (CEST)Milano/Linate, Italy (16080): precipitation: 14.10.2018 16:00:00 - 20.10.2018 16:00:00 (CEST)
Date & Time tt [°C] td [°C] ff [km/h] ff [kn] dd ppp [hPa] vv [km] rr [mm]
20.10.2018 16:00:00 23,0 11,0 4 2 - - 10 -
20.10.2018 15:00:00 22,0 12,0 5 3 - - 8 -
20.10.2018 14:00:00 21,7 12,1 9 5 SE 1024,0 8 -
20.10.2018 13:00:00 21,0 13,0 8 4 SE - 7 -
20.10.2018 12:00:00 20,0 14,0 5 3 SE - 6 -
20.10.2018 11:00:00 18,7 14,4 5 3 SSE 1024,4 5 0,0
20.10.2018 10:00:00 17,0 14,0 2 1 - - 4,0 -
20.10.2018 09:00:00 - - - - - - - -
20.10.2018 08:00:00 12,7 12,7 4 2 SSW 1022,6 3,5 -
20.10.2018 07:00:00 12,0 12,0 2 1 - - 3,0 -
20.10.2018 06:00:00 12,0 12,0 2 1 WSW - 3,0 -
20.10.2018 05:00:00 12,8 12,5 2 1 N 1021,6 4,0 0,0
20.10.2018 04:00:00 13,0 12,0 4 2 N - 6 -
20.10.2018 03:00:00 13,0 12,0 2 1 - - 10 -
20.10.2018 02:00:00 13,1 12,3 5 3 N 1021,6 10 -
20.10.2018 01:00:00 13,0 13,0 5 3 N - 10 -
20.10.2018 00:00:00 14,0 13,0 2 1 NE - 10 -
19.10.2018 23:00:00 14,7 13,3 4 2 NNE 1020,7 10 0,0
19.10.2018 22:00:00 15,0 13,0 4 2 N - 10 -
19.10.2018 21:00:00 16,0 13,0 2 1 - - 10 -
19.10.2018 20:00:00 17,2 13,5 2 1 - 1019,3 10 -
19.10.2018 19:00:00 21,0 13,0 5 3 ESE - 8 -
19.10.2018 18:00:00 23,0 13,0 8 4 ESE - 8 -
19.10.2018 17:00:00 22,8 12,6 8 4 SE 1018,0 8 0,0
19.10.2018 16:00:00 23,0 13,0 4 2 - - 8 -
19.10.2018 15:00:00 23,0 14,0 5 3 - - 8 -
19.10.2018 14:00:00 22,5 14,1 8 4 SSW 1018,7 8 -
19.10.2018 13:00:00 22,0 14,0 8 4 SSW - 8 -
19.10.2018 12:00:00 20,0 14,0 9 5 SSW - 8 -
19.10.2018 11:00:00 19,3 14,2 5 3 S 1019,3 8 0,0
19.10.2018 10:00:00 17,0 14,0 2 1 - - 8 -
19.10.2018 09:00:00 14,0 13,0 4 2 - - 8 -
19.10.2018 08:00:00 12,2 12,0 4 2 SSW 1018,3 7 -
19.10.2018 07:00:00 13,0 12,0 4 2 W - 8 -
19.10.2018 06:00:00 13,0 13,0 4 2 N - 10 -
19.10.2018 05:00:00 13,1 12,7 4 2 N 1018,3 10 0,0
19.10.2018 04:00:00 13,0 13,0 2 1 - - 10 -
19.10.2018 03:00:00 14,0 13,0 2 1 NW - 10 -
19.10.2018 02:00:00 14,0 13,3 2 1 - 1018,1 10 -
19.10.2018 01:00:00 14,0 13,0 2 1 NE - 10 -
19.10.2018 00:00:00 15,0 14,0 2 1 NE - 10 -
18.10.2018 23:00:00 14,8 12,8 4 2 - 1017,0 10 0,0
18.10.2018 22:00:00 15,0 13,0 2 1 S - 10 -
18.10.2018 21:00:00 17,0 14,0 2 1 - - 10 -
18.10.2018 20:00:00 18,0 13,7 2 1 - 1016,1 10 -
18.10.2018 19:00:00 22,0 13,0 5 3 SE - 10 -
18.10.2018 18:00:00 23,0 13,0 5 3 S - 10 -
18.10.2018 17:00:00 23,6 12,9 8 4 S 1015,3 8 0,0
18.10.2018 16:00:00 23,0 13,0 5 3 - - 8 -
18.10.2018 15:00:00 24,0 13,0 4 2 - - 9 -
18.10.2018 14:00:00 23,0 13,0 4 2 - - 7 -
18.10.2018 13:00:00 22,0 13,0 2 1 - - 6 -
18.10.2018 12:00:00 20,0 13,0 8 4 NNE - 6 -
18.10.2018 11:00:00 17,4 13,3 4 2 - 1018,0 5 0,0
18.10.2018 10:00:00 15,0 13,0 2 1 - - 5 -
18.10.2018 09:00:00 14,0 12,0 2 1 - - 4,0 -
18.10.2018 08:00:00 13,3 12,3 5 3 N 1017,3 3,5 -
18.10.2018 07:00:00 13,0 12,0 4 2 N - 10 -
18.10.2018 06:00:00 14,0 13,0 2 1 NE - 10 -
18.10.2018 05:00:00 14,8 13,5 4 2 N 1017,3 10 0,0
18.10.2018 04:00:00 15,0 14,0 2 1 NNE - 10 -
18.10.2018 03:00:00 14,0 13,0 0 0 N - 10 -
18.10.2018 02:00:00 13,3 12,8 2 1 - 1018,5 10 -
18.10.2018 01:00:00 14,0 13,0 4 2 NNE - 10 -
18.10.2018 00:00:00 15,0 13,0 2 1 - - 10 -
17.10.2018 23:00:00 14,7 12,9 0 0 N 1019,2 10 0,0
17.10.2018 22:00:00 16,0 13,0 2 1 - - 10 -
17.10.2018 21:00:00 17,0 13,0 0 0 N - 10 -
17.10.2018 20:00:00 17,5 13,3 4 2 - 1018,6 9 -
17.10.2018 19:00:00 19,0 12,0 4 2 - - 8 -
17.10.2018 18:00:00 20,0 13,0 5 3 SSE - 8 -
17.10.2018 17:00:00 20,4 12,7 5 3 ESE 1018,1 10 0,0
17.10.2018 16:00:00 21,0 13,0 5 3 ESE - 10 -
17.10.2018 15:00:00 21,0 13,0 8 4 S - 7 -
17.10.2018 14:00:00 20,7 12,3 4 2 - 1019,1 7 -
17.10.2018 13:00:00 20,0 12,0 4 2 - - 6 -
17.10.2018 12:00:00 19,0 13,0 5 3 NE - 4,0 -
17.10.2018 11:00:00 17,5 13,1 5 3 ESE 1020,3 6 0,0
17.10.2018 10:00:00 17,0 13,0 4 2 - - 6 -
17.10.2018 09:00:00 16,0 13,0 2 1 - - 6 -
17.10.2018 08:00:00 16,0 14,0 4 2 - - 5 -
17.10.2018 07:00:00 16,0 13,0 4 2 NNW - 8 -
17.10.2018 06:00:00 16,0 14,0 5 3 N - 10 -
17.10.2018 05:00:00 16,4 12,6 4 2 ENE 1019,8 10 0,0
17.10.2018 04:00:00 - - - - - - - -
17.10.2018 03:00:00 16,0 14,0 5 3 S - 10 -
17.10.2018 02:00:00 16,1 13,6 4 2 - 1021,0 10 -
17.10.2018 01:00:00 16,0 14,0 2 1 - - 10 -
17.10.2018 00:00:00 16,0 14,0 2 1 - - 10 -
16.10.2018 23:00:00 16,4 13,2 2 1 NW 1021,7 10 0,0
16.10.2018 22:00:00 16,0 13,0 2 1 - - 10 -
16.10.2018 21:00:00 18,0 13,0 4 2 S - 10 -
16.10.2018 20:00:00 17,8 13,2 5 3 S 1021,2 10 -
16.10.2018 19:00:00 20,0 12,0 9 5 SSE - 10 -
16.10.2018 18:00:00 21,0 12,0 8 4 SE - 10 -
16.10.2018 17:00:00 21,4 11,7 9 5 SSE 1020,5 10 0,0
16.10.2018 16:00:00 22,0 11,0 11 6 SSE - 10 -
16.10.2018 15:00:00 22,0 11,0 4 2 - - 10 -
16.10.2018 14:00:00 21,1 11,4 8 4 ESE 1021,1 10 -
16.10.2018 13:00:00 21,0 12,0 8 4 - - 10 -
16.10.2018 12:00:00 20,0 12,0 4 2 - - 8 -
16.10.2018 11:00:00 19,3 12,5 5 3 NE 1021,4 6 0,0
16.10.2018 10:00:00 16,0 13,0 4 2 - - 10 -
16.10.2018 09:00:00 15,0 13,0 4 2 - - 6 -
16.10.2018 08:00:00 13,9 12,3 4 2 - 1020,6 6 -
16.10.2018 07:00:00 13,0 11,0 4 2 N - 10 -
16.10.2018 06:00:00 14,0 12,0 4 2 N - 10 -
16.10.2018 05:00:00 14,1 12,0 2 1 NNE 1020,1 - 0,0
16.10.2018 04:00:00 16,0 12,0 5 3 NE - 10 -
16.10.2018 03:00:00 16,0 13,0 8 4 E - 10 -
16.10.2018 02:00:00 16,6 12,5 8 4 ENE 1020,8 10 -
16.10.2018 01:00:00 17,0 12,0 8 4 ENE - 10 -
16.10.2018 00:00:00 17,0 13,0 8 4 NE - 10 -
15.10.2018 23:00:00 18,2 13,0 9 5 ENE 1020,7 10 0,0
15.10.2018 22:00:00 - - - - - - - -
15.10.2018 21:00:00 18,0 13,0 8 4 ENE - 10 -
15.10.2018 20:00:00 17,1 13,2 4 2 NE 1019,9 - -
15.10.2018 19:00:00 18,0 13,0 4 2 SSW - 10 -
15.10.2018 18:00:00 20,0 13,0 9 5 S - 10 -
15.10.2018 17:00:00 20,9 12,1 11 6 S 1018,6 10 0,0
15.10.2018 16:00:00 22,0 11,0 13 7 ESE - 10 -
15.10.2018 15:00:00 21,0 11,0 15 8 ESE - 10 -
15.10.2018 14:00:00 21,4 10,8 15 8 E 1019,2 10 -
15.10.2018 13:00:00 21,0 11,0 13 7 ESE - 10 -
15.10.2018 12:00:00 19,0 12,0 9 5 E - 10 -
15.10.2018 11:00:00 18,0 11,6 8 4 ENE 1019,7 10 0,0
15.10.2018 10:00:00 16,0 12,0 5 3 ENE - 10 -
15.10.2018 09:00:00 13,0 12,0 2 1 - - 7 -
15.10.2018 08:00:00 12,5 11,4 2 1 - 1018,9 7 -
15.10.2018 07:00:00 12,0 11,0 4 2 ENE - 10 -
15.10.2018 06:00:00 11,0 11,0 4 2 N - 10 -
15.10.2018 05:00:00 11,3 10,1 2 1 - 1018,6 10 0,0
15.10.2018 04:00:00 12,0 11,0 2 1 - - 10 -
15.10.2018 03:00:00 13,0 11,0 4 2 NE - 10 -
15.10.2018 02:00:00 12,5 11,6 2 1 N 1019,1 - -
15.10.2018 01:00:00 14,0 11,0 5 3 NNW - 10 -
15.10.2018 00:00:00 14,0 12,0 5 3 N - 10 -
14.10.2018 23:00:00 13,6 11,9 8 4 NNE 1019,1 6 0,0
14.10.2018 22:00:00 15,0 13,0 5 3 N - 8 -
14.10.2018 21:00:00 14,0 12,0 4 2 - - 8 -
14.10.2018 20:00:00 15,2 12,1 2 1 N 1018,8 10 -
14.10.2018 19:00:00 18,0 12,0 2 1 W - 10 -
14.10.2018 18:00:00 21,0 11,0 8 4 E - 9 -
14.10.2018 17:00:00 21,7 10,8 8 4 ESE 1018,6 10 0,0
14.10.2018 16:00:00 22,0 11,0 8 4 E - 10 -

tt = temperature
td = dewpoint
ff = wind speed
dd = wind direction
ppp = reduced air pressure
vv = visibility
rr = precipitation

Next stations